When you browse on this site, cookies collect data to enhance your experience and personalize the content and advertising you see.
Visit our Privacy Policy to learn more. By continuing to use the site, you agree to this use of cookies and data.
  • In Romania
  • List of Countries
  • For 7 days
  • Water Temperature
  • Weather Map
  • Weather Widgets
  • user-avatar
    Login

    Hourly Weather Madras

    Today, 30 May, Saturday

    Time Temperature Precipitation Wind Pressure Humidity
    00:00 +34°C° 0 mm 8 mps 753 mmHg 69%
    01:00 +34°C° 0 mm 7 mps 753 mmHg 70%
    02:00 +33°C° 0 mm 7 mps 752 mmHg 72%
    03:00 +33°C° 0 mm 7 mps 752 mmHg 70%
    04:00 +33°C° 0 mm 6 mps 753 mmHg 68%
    05:00 +33°C° 0 mm 6 mps 753 mmHg 66%
    06:00 +34°C° 0.1 mm 6 mps 754 mmHg 60%
    07:00 +35°C° 0.1 mm 5 mps 754 mmHg 55%
    08:00 +36°C° 0.1 mm 4 mps 755 mmHg 50%
    09:00 +39°C° 0 mm 5 mps 755 mmHg 47%
    10:00 +40°C° 0 mm 6 mps 754 mmHg 44%
    11:00 +41°C° 0 mm 6 mps 754 mmHg 41%
    12:00 +41°C° 0 mm 7 mps 754 mmHg 43%
    13:00 +41°C° 0 mm 7 mps 753 mmHg 44%
    14:00 +41°C° 0 mm 8 mps 752 mmHg 46%
    15:00 +40°C° 0 mm 8 mps 752 mmHg 51%
    16:00 +38°C° 0 mm 8 mps 752 mmHg 56%
    17:00 +37°C° 0 mm 8 mps 752 mmHg 61%
    18:00 +35°C° 0 mm 8 mps 752 mmHg 65%
    19:00 +34°C° 0 mm 7 mps 753 mmHg 69%
    20:00 +34°C° 0 mm 7 mps 753 mmHg 73%
    21:00 +34°C° 0 mm 7 mps 754 mmHg 71%
    22:00 +34°C° 0 mm 8 mps 754 mmHg 70%
    23:00 +34°C° 0 mm 8 mps 755 mmHg 69%

    Tomorrow, 31 May, Sunday

    Time Temperature Precipitation Wind Pressure Humidity
    00:00 +34°C° 0 mm 8 mps 754 mmHg 68%
    01:00 +34°C° 0 mm 8 mps 754 mmHg 67%
    02:00 +33°C° 0 mm 8 mps 754 mmHg 65%
    03:00 +33°C° 0 mm 7 mps 754 mmHg 66%
    04:00 +33°C° 0 mm 6 mps 754 mmHg 67%
    05:00 +32°C° 0 mm 6 mps 754 mmHg 67%
    06:00 +33°C° 0 mm 5 mps 755 mmHg 63%
    07:00 +35°C° 0 mm 5 mps 755 mmHg 58%
    08:00 +36°C° 0 mm 5 mps 756 mmHg 54%
    09:00 +37°C° 0 mm 5 mps 756 mmHg 50%
    10:00 +39°C° 0 mm 6 mps 755 mmHg 47%
    11:00 +40°C° 0 mm 6 mps 755 mmHg 43%
    12:00 +40°C° 0 mm 7 mps 755 mmHg 44%
    13:00 +40°C° 0 mm 8 mps 754 mmHg 45%
    14:00 +41°C° 0 mm 8 mps 753 mmHg 46%
    15:00 +39°C° 0 mm 8 mps 753 mmHg 51%
    16:00 +38°C° 0 mm 8 mps 752 mmHg 56%
    17:00 +37°C° 0 mm 8 mps 752 mmHg 61%
    18:00 +35°C° 0 mm 8 mps 753 mmHg 64%
    19:00 +34°C° 0 mm 8 mps 753 mmHg 68%
    20:00 +34°C° 0 mm 8 mps 754 mmHg 72%
    21:00 +34°C° 0 mm 8 mps 754 mmHg 72%
    22:00 +34°C° 0 mm 8 mps 754 mmHg 71%
    23:00 +33°C° 0 mm 8 mps 755 mmHg 71%

    Day after tomorrow, 1 June, Monday

    Time Temperature Precipitation Wind Pressure Humidity
    00:00 +33°C° 0 mm 8 mps 754 mmHg 71%
    01:00 +33°C° 0 mm 8 mps 754 mmHg 71%
    02:00 +33°C° 0 mm 8 mps 753 mmHg 71%
    03:00 +32°C° 0 mm 8 mps 754 mmHg 72%
    04:00 +32°C° 0 mm 7 mps 754 mmHg 73%
    05:00 +32°C° 0 mm 7 mps 754 mmHg 74%
    06:00 +33°C° 0 mm 7 mps 754 mmHg 69%
    07:00 +34°C° 0 mm 6 mps 755 mmHg 64%
    08:00 +35°C° 0 mm 6 mps 755 mmHg 59%
    09:00 +38°C° 0 mm 6 mps 755 mmHg 53%
    10:00 +39°C° 0 mm 6 mps 755 mmHg 48%
    11:00 +41°C° 0 mm 6 mps 755 mmHg 43%
    12:00 +41°C° 0 mm 7 mps 754 mmHg 44%
    13:00 +41°C° 0 mm 8 mps 754 mmHg 44%
    14:00 +42°C° 0 mm 9 mps 753 mmHg 45%
    15:00 +40°C° 0 mm 9 mps 753 mmHg 50%
    16:00 +39°C° 0 mm 9 mps 752 mmHg 55%
    17:00 +37°C° 0 mm 9 mps 752 mmHg 60%
    18:00 +37°C° 0 mm 9 mps 753 mmHg 62%
    19:00 +36°C° 0 mm 10 mps 753 mmHg 65%
    20:00 +34°C° 0 mm 10 mps 754 mmHg 67%
    21:00 +34°C° 0 mm 9 mps 754 mmHg 66%
    22:00 +34°C° 0 mm 9 mps 754 mmHg 65%
    23:00 +34°C° 0 mm 8 mps 755 mmHg 64%

    2 June, Tuesday

    Time Temperature Precipitation Wind Pressure Humidity
    00:00 +34°C° 0 mm 8 mps 754 mmHg 64%
    01:00 +33°C° 0 mm 7 mps 754 mmHg 64%
    02:00 +33°C° 0 mm 7 mps 753 mmHg 63%
    03:00 +33°C° 0 mm 6 mps 754 mmHg 63%
    04:00 +33°C° 0 mm 6 mps 754 mmHg 63%
    05:00 +32°C° 0 mm 5 mps 754 mmHg 63%
    06:00 +34°C° 0 mm 5 mps 754 mmHg 58%
    07:00 +35°C° 0 mm 5 mps 755 mmHg 53%
    08:00 +37°C° 0 mm 4 mps 755 mmHg 48%
    09:00 +39°C° 0 mm 5 mps 755 mmHg 45%
    10:00 +40°C° 0 mm 5 mps 755 mmHg 41%
    11:00 +41°C° 0 mm 6 mps 755 mmHg 38%
    12:00 +41°C° 0 mm 6 mps 754 mmHg 40%
    13:00 +40°C° 0 mm 7 mps 754 mmHg 42%
    14:00 +40°C° 0 mm 8 mps 753 mmHg 44%
    15:00 +39°C° 0 mm 8 mps 753 mmHg 49%
    16:00 +38°C° 0 mm 8 mps 753 mmHg 54%
    17:00 +37°C° 0 mm 8 mps 752 mmHg 60%
    18:00 +35°C° 0 mm 8 mps 753 mmHg 63%
    19:00 +34°C° 0 mm 8 mps 753 mmHg 66%
    20:00 +34°C° 0 mm 8 mps 754 mmHg 69%
    21:00 +34°C° 0 mm 9 mps 754 mmHg 66%
    22:00 +34°C° 0 mm 9 mps 754 mmHg 63%
    23:00 +34°C° 0 mm 9 mps 754 mmHg 60%

    3 June, Wednesday

    Time Temperature Precipitation Wind Pressure Humidity
    00:00 +33°C° 0 mm 9 mps 754 mmHg 61%
    01:00 +33°C° 0 mm 8 mps 753 mmHg 62%
    02:00 +33°C° 0 mm 8 mps 753 mmHg 62%
    03:00 +32°C° 0 mm 7 mps 753 mmHg 63%
    04:00 +32°C° 0 mm 7 mps 753 mmHg 64%
    05:00 +32°C° 0 mm 6 mps 753 mmHg 64%
    06:00 +33°C° 0 mm 6 mps 754 mmHg 60%
    07:00 +34°C° 0 mm 5 mps 754 mmHg 55%
    08:00 +36°C° 0 mm 5 mps 755 mmHg 51%
    09:00 +37°C° 0 mm 5 mps 755 mmHg 47%
    10:00 +39°C° 0 mm 5 mps 754 mmHg 42%
    11:00 +41°C° 0 mm 5 mps 754 mmHg 38%
    12:00 +41°C° 0 mm 6 mps 754 mmHg 39%
    13:00 +41°C° 0 mm 6 mps 753 mmHg 39%
    14:00 +41°C° 0 mm 7 mps 752 mmHg 40%
    15:00 +40°C° 0 mm 7 mps 752 mmHg 45%
    16:00 +39°C° 0 mm 7 mps 752 mmHg 50%
    17:00 +37°C° 0 mm 8 mps 751 mmHg 55%
    18:00 +35°C° 0.1 mm 7 mps 752 mmHg 60%
    19:00 +35°C° 0.1 mm 6 mps 753 mmHg 65%
    20:00 +34°C° 0.1 mm 5 mps 753 mmHg 70%
    21:00 +34°C° 0.6 mm 6 mps 753 mmHg 69%
    22:00 +34°C° 0.6 mm 6 mps 754 mmHg 68%
    23:00 +34°C° 0.6 mm 6 mps 754 mmHg 67%

    4 June, Thursday

    Time Temperature Precipitation Wind Pressure Humidity
    00:00 +34°C° 0 mm 6 mps 753 mmHg 66%
    01:00 +33°C° 0 mm 7 mps 753 mmHg 65%
    02:00 +33°C° 0 mm 7 mps 752 mmHg 64%
    03:00 +33°C° 0 mm 6 mps 753 mmHg 63%
    04:00 +33°C° 0 mm 6 mps 753 mmHg 62%
    05:00 +33°C° 0 mm 5 mps 753 mmHg 62%
    06:00 +34°C° 0 mm 5 mps 754 mmHg 55%
    07:00 +36°C° 0 mm 5 mps 754 mmHg 49%
    08:00 +37°C° 0 mm 4 mps 755 mmHg 43%
    09:00 +40°C° 0 mm 4 mps 754 mmHg 39%
    10:00 +41°C° 0 mm 5 mps 754 mmHg 36%
    11:00 +42°C° 0 mm 5 mps 754 mmHg 32%
    12:00 +42°C° 0 mm 6 mps 753 mmHg 32%
    13:00 +42°C° 0 mm 6 mps 752 mmHg 33%
    14:00 +43°C° 0 mm 7 mps 752 mmHg 33%
    15:00 +41°C° 0 mm 7 mps 751 mmHg 39%
    16:00 +39°C° 0 mm 7 mps 751 mmHg 45%
    17:00 +38°C° 0 mm 8 mps 751 mmHg 51%
    18:00 +37°C° 0 mm 8 mps 752 mmHg 57%
    19:00 +35°C° 0 mm 7 mps 752 mmHg 62%
    20:00 +34°C° 0 mm 7 mps 753 mmHg 68%
    21:00 +34°C° 0 mm 7 mps 753 mmHg 65%
    22:00 +34°C° 0 mm 7 mps 753 mmHg 63%
    23:00 +35°C° 0 mm 7 mps 754 mmHg 60%
    Show more